Date String (YYYY-MM-DD hh:mm:ss) UTC,Instrument flags,Ambient pressure (hPa),Sample flow (lpm),Bypass flow (lpm),Sample temperature (°C),Ambient temperature (°C),ASC tube jacket temperature (°C),LED temperature (°C),Box temperature (°C),Sample RH (%),Span deviation,Mass concentration (μg/m³),Mass concentration (μg/m³),Mass concentration (μg/m³)
DateTimeUTC,F1_M11,P_M11,Q1_M11,Q2_M11,T1_M11,T2_M11,T3_M11,T4_M11,T5_M11,U1_M11,ZSPAN_M11,X0_M11,X2_M11,X1_M11
2023-05-14 02:00:00,,0838.3,5.00,0.00,29.8,28.1,00.0,38.3,31.4,26.4,0000.0,0002.60,0001.75,0001.40
2023-05-14 02:01:00,,0838.4,4.99,0.00,29.8,28.1,00.0,38.3,31.4,26.3,0000.0,0002.74,0001.82,0001.42
2023-05-14 02:02:00,,0838.4,5.00,0.00,29.8,28.1,00.0,38.3,31.3,26.3,0000.0,0002.76,0001.80,0001.42
2023-05-14 02:03:00,,0838.4,5.01,0.00,29.8,28.1,00.0,38.3,31.4,26.3,0000.0,0002.67,0001.76,0001.42
2023-05-14 02:04:00,,0838.4,4.99,0.00,29.8,28.1,00.0,38.3,31.3,26.2,0000.0,0002.66,0001.77,0001.44
2023-05-14 02:05:00,,0838.4,5.01,0.00,29.8,28.1,00.0,38.3,31.3,26.2,0000.0,0002.64,0001.76,0001.44
2023-05-14 02:06:00,,0838.4,5.00,0.00,29.8,28.1,00.0,38.3,31.4,26.1,0000.0,0002.51,0001.72,0001.44
2023-05-14 02:07:00,,0838.5,4.98,0.00,29.8,28.1,00.0,38.3,31.3,26.2,0000.0,0002.30,0001.67,0001.43
2023-05-14 02:08:00,,0838.5,5.01,0.00,29.8,28.1,00.0,38.3,31.3,26.3,0000.0,0002.26,0001.66,0001.43
2023-05-14 02:09:00,,0838.6,5.00,0.00,29.8,28.2,00.0,38.3,31.4,26.3,0000.0,0002.20,0001.66,0001.43
2023-05-14 02:10:00,,0838.6,4.99,0.00,29.8,28.2,00.0,38.3,31.4,26.4,0000.0,0002.35,0001.72,0001.44
2023-05-14 02:11:00,,0838.6,4.99,0.00,29.8,28.2,00.0,38.2,31.4,26.4,0000.0,0002.52,0001.78,0001.46
2023-05-14 02:12:00,,0838.6,5.00,0.00,29.8,28.2,00.0,38.2,31.4,26.4,0000.0,0002.45,0001.77,0001.48
2023-05-14 02:13:00,,0838.6,5.00,0.00,29.8,28.2,00.0,38.2,31.4,26.4,0000.0,0002.46,0001.81,0001.50
2023-05-14 02:14:00,,0838.6,5.01,0.00,29.8,28.2,00.0,38.2,31.4,26.4,0000.0,0002.56,0001.87,0001.54
2023-05-14 02:15:00,,0838.6,5.00,0.00,29.8,28.2,00.0,38.2,31.4,26.3,0000.0,0002.57,0001.90,0001.57
2023-05-14 02:16:00,,0838.6,4.99,0.00,29.8,28.2,00.0,38.2,31.4,26.4,0000.0,0002.68,0001.96,0001.60
2023-05-14 02:17:00,,0838.6,5.00,0.00,29.8,28.2,00.0,38.2,31.4,26.3,0000.0,0002.81,0002.03,0001.64
2023-05-14 02:18:00,,0838.7,5.03,0.00,29.8,28.2,00.0,38.2,31.4,26.3,0000.0,0002.86,0002.08,0001.66
2023-05-14 02:19:00,,0838.7,4.99,0.00,29.8,28.2,00.0,38.2,31.4,26.4,0000.0,0002.89,0002.13,0001.69
2023-05-14 02:20:00,,0838.7,4.99,0.00,29.8,28.3,00.0,38.2,31.4,26.3,0000.0,0003.10,0002.15,0001.72
2023-05-14 02:21:00,,0838.7,5.02,0.00,29.9,28.3,00.0,38.2,31.4,26.3,0000.0,0003.01,0002.14,0001.75
2023-05-14 02:22:00,,0838.7,5.00,0.00,29.9,28.3,00.0,38.2,31.4,26.4,0000.0,0002.97,0002.12,0001.76
2023-05-14 02:23:00,,0838.7,5.00,0.00,29.9,28.3,00.0,38.2,31.4,26.4,0000.0,0002.99,0002.11,0001.77
2023-05-14 02:24:00,,0838.7,5.00,0.00,29.9,28.3,00.0,38.2,31.4,26.5,0000.0,0003.05,0002.14,0001.78
2023-05-14 02:25:00,,0838.8,5.00,0.00,29.9,28.4,00.0,38.2,31.4,26.5,0000.0,0003.03,0002.15,0001.80
2023-05-14 02:26:00,,0838.7,5.00,0.00,29.9,28.4,00.0,38.3,31.4,26.5,0000.0,0002.99,0002.13,0001.80
2023-05-14 02:27:00,,0838.8,5.00,0.00,29.9,28.4,00.0,38.3,31.4,26.5,0000.0,0003.05,0002.18,0001.84
2023-05-14 02:28:00,,0838.7,5.00,0.00,29.9,28.4,00.0,38.3,31.4,26.5,0000.0,0003.15,0002.24,0001.88
2023-05-14 02:29:00,,0838.7,5.02,0.00,29.9,28.4,00.0,38.3,31.5,26.5,0000.0,0003.29,0002.33,0001.94
2023-05-14 02:30:00,,0838.7,4.99,0.00,29.9,28.4,00.0,38.3,31.4,26.6,0000.0,0003.36,0002.40,0002.00
2023-05-14 02:31:00,,0838.8,5.00,0.00,29.9,28.4,00.0,38.3,31.4,26.6,0000.0,0003.36,0002.50,0002.08
2023-05-14 02:32:00,,0838.8,5.01,0.00,29.9,28.4,00.0,38.3,31.5,26.5,0000.0,0003.46,0002.60,0002.16
2023-05-14 02:33:00,,0838.8,5.01,0.00,29.9,28.4,00.0,38.3,31.5,26.5,0000.0,0003.44,0002.67,0002.24
2023-05-14 02:34:00,,0838.8,4.99,0.00,29.9,28.4,00.0,38.3,31.5,26.5,0000.0,0003.47,0002.76,0002.33
2023-05-14 02:35:00,,0838.8,5.00,0.00,29.9,28.4,00.0,38.3,31.5,26.5,0000.0,0003.56,0002.84,0002.41
2023-05-14 02:36:00,,0838.8,5.00,0.00,29.9,28.4,00.0,38.3,31.5,26.5,0000.0,0003.72,0002.94,0002.48
2023-05-14 02:37:00,,0838.8,5.00,0.00,29.9,28.4,00.0,38.3,31.5,26.5,0000.0,0003.87,0003.06,0002.56
2023-05-14 02:38:00,,0838.8,5.00,0.00,29.9,28.4,00.0,38.3,31.5,26.5,0000.0,0004.06,0003.12,0002.62
2023-05-14 02:39:00,,0838.8,5.01,0.00,30.0,28.4,00.0,38.3,31.5,26.4,0000.0,0004.98,0003.13,0002.67
2023-05-14 02:40:00,,0838.8,5.00,0.00,30.0,28.4,00.0,38.3,31.5,26.4,0000.0,0005.81,0003.15,0002.71
2023-05-14 02:41:00,,0838.8,4.99,0.00,30.0,28.5,00.0,38.3,31.5,26.4,0000.0,0005.87,0003.17,0002.73
2023-05-14 02:42:00,,0838.9,5.00,0.00,30.0,28.5,00.0,38.3,31.5,26.4,0000.0,0005.82,0003.16,0002.73
2023-05-14 02:43:00,,0838.9,5.02,0.00,30.0,28.5,00.0,38.3,31.5,26.4,0000.0,0005.73,0003.15,0002.72
2023-05-14 02:44:00,,0838.9,5.00,0.00,30.0,28.5,00.0,38.3,31.5,26.4,0000.0,0005.83,0003.16,0002.73
2023-05-14 02:45:00,,0838.9,4.99,0.00,30.0,28.5,00.0,38.3,31.5,26.3,0000.0,0005.81,0003.16,0002.73
2023-05-14 02:46:00,,0838.9,5.00,0.00,30.0,28.5,00.0,38.3,31.5,26.4,0000.0,0005.67,0003.14,0002.74
2023-05-14 02:47:00,,0839.0,5.02,0.00,30.0,28.5,00.0,38.3,31.5,26.3,0000.0,0005.54,0003.12,0002.76
2023-05-14 02:48:00,,0839.0,5.00,0.00,30.0,28.5,00.0,38.3,31.5,26.2,0000.0,0005.58,0003.12,0002.76
2023-05-14 02:49:00,,0839.0,5.00,0.00,30.0,28.5,00.0,38.3,31.5,26.2,0000.0,0005.41,0003.09,0002.73
2023-05-14 02:50:00,,0839.0,4.99,0.00,30.0,28.5,00.0,38.4,31.6,26.2,0000.0,0004.45,0003.04,0002.72
2023-05-14 02:51:00,,0839.1,5.00,0.00,30.0,28.5,00.0,38.4,31.6,26.2,0000.0,0003.39,0002.99,0002.70
2023-05-14 02:52:00,,0839.1,5.01,0.00,30.0,28.5,00.0,38.4,31.6,26.1,0000.0,0003.24,0002.94,0002.71
2023-05-14 02:53:00,,0839.1,5.00,0.00,30.0,28.5,00.0,38.4,31.6,26.1,0000.0,0003.21,0002.92,0002.71
2023-05-14 02:54:00,,0839.2,5.00,0.00,30.0,28.5,00.0,38.4,31.6,26.2,0000.0,0003.35,0002.96,0002.71
2023-05-14 02:55:00,,0839.2,4.99,0.00,30.0,28.5,00.0,38.4,31.6,26.2,0000.0,0003.73,0002.94,0002.70
2023-05-14 02:56:00,,0839.1,5.00,0.00,30.0,28.5,00.0,38.4,31.6,26.2,0000.0,0003.79,0002.91,0002.68
2023-05-14 02:57:00,,0839.1,5.00,0.00,30.1,28.5,00.0,38.4,31.6,26.2,0000.0,0003.75,0002.89,0002.66
2023-05-14 02:58:00,,0839.2,5.01,0.00,30.1,28.5,00.0,38.4,31.6,26.2,0000.0,0003.74,0002.88,0002.64
2023-05-14 02:59:00,,0839.2,5.00,0.00,30.1,28.5,00.0,38.4,31.6,26.2,0000.0,0003.65,0002.83,0002.62
